Location: Newark
(25.1987°N, 100.3705°W)
Time: 05:06:55
(UTC+00:00)

LightSail 2 - Pass Details

Date: 14 April 2020
Orbit: 695 x 719 km, 24.0° (Epoch: 28 May)

Event Time Altitude Azimuth Distance (km) Brightness Sun altitude
Exits shadow 10:34:16 66° 213° (SSW) 760 5.0 -23.5°
Maximum altitude 10:34:34 68° 189° (S) 750 5.0 -23.5°
Drops below altitude 10° 10:39:36 10° 106° (ESE) 2,147 8.3 -22.4°
Sets 10:42:01 0° 104° (ESE) 3,060 9.3 -21.9°
